Regional Weather Roundup
Issued by NWS

Home | Current Version | Previous Version | Graphics & Text | Print | Product List | Glossary On
Versions: 1 2 3 4 5 6 7 8 9 10 11 12 13 14 15 16 17 18 19 20 21 22 23 24 25 26 27 28 29 30 31 32 33 34 35 36 37 38 39 40 41 42 43 44 45 46 47 48 49 50
899
ASUS45 KTFX 090510
RWRMT
MONTANA REGIONAL WEATHER ROUNDUP
NATIONAL WEATHER SERVICE GREAT FALLS MT
1000 PM MST MON FEB 08 2016

NOTE: "FAIR" INDICATES FEW OR NO CLOUDS BELOW 12000 FEET WITH NO
SIGNIFICANT WEATHER AND/OR OBSTRUCTIONS TO VISIBILITY.

MTZ001>007-043-090600-
WEST OF THE DIVIDE

CITY           SKY/WX    TMP DP  RH WIND       PRES   REMARKS
KALISPELL      MOCLDY    29  24  82 CALM      30.52S
MISSOULA       CLEAR     30  25  81 CALM      30.56R
BUTTE          CLOUDY    25  22  88 CALM      30.50S
MULLAN PASS    CLEAR     38  29  70 SW6       30.51S
ANACONDA         N/A     34  27  75 SE5       30.51R
DEER LODGE       N/A     32  28  86 CALM      30.51S
HAMILTON         N/A     30  27  86 CALM      30.53
LIBBY            N/A     30  27  86 CALM      30.55F
PLAINS           N/A     30  24  78 CALM      30.51R
$$

MTZ008-052>055-090600-
SOUTHWEST MONTANA

CITY           SKY/WX    TMP DP  RH WIND       PRES   REMARKS
BOZEMAN        CLOUDY    31  25  78 SW6       30.46S WCI  25
DILLON         CLOUDY    37  29  72 S13       30.48S WCI  29
ENNIS          CLEAR     34  27  75 SE12      30.55S WCI  25
TWIN BRIDGES     N/A     29  21  71 S3        30.42S
$$

MTZ009-010-012-014-046-048-049-054-090600-
EAST SLOPES AND CENTRAL MONTANA

CITY           SKY/WX    TMP DP  RH WIND       PRES   REMARKS
CUT BANK       CLEAR     41  29  62 W15       30.30R
GREAT FALLS    CLOUDY    39  29  67 SW14      30.32S WCI  31
MALMSTROM AFB  CLOUDY    39  31  71 SW15      30.32F WCI  31
HELENA         CLOUDY    37  30  75 CALM      30.41S
CHOTEAU          N/A     50  30  46 W12G23    30.31S
CONRAD           N/A     45  30  55 NW2       30.29R
$$

MTZ011-013-016-021-045-047-050-051-090600-
NORTH CENTRAL MONTANA

CITY           SKY/WX    TMP DP  RH WIND       PRES   REMARKS
HAVRE          CLOUDY    34  28  79 MISG      30.28R
LEWISTOWN      CLOUDY    36  27  69 W13       30.32S WCI  27
N BAR RANCH      N/A     39  27  60 NW7       30.31S
CHINOOK          N/A     27  23  86 CALM      30.26F
$$

MTZ017>020-022>027-061-062-090600-
NORTHEAST MONTANA

CITY           SKY/WX    TMP DP  RH WIND       PRES   REMARKS
GLASGOW        CLEAR     27  20  75 NW3       30.22F
JORDAN           N/A     32  29  88 W7        30.24R WCI  26
SIDNEY         CLOUDY    30  19  64 CALM      30.26S
WOLF POINT     CLEAR     24  20  84 CALM      30.24F
MALTA            N/A    N/A N/A N/A MISG      30.20
PLENTYWOOD       N/A     28  21  74 SE3       30.22F
POPLAR           N/A     28  19  69 SW5       30.24F
$$

MTZ028>42-056>058-090600-
SOUTHCENTRAL AND SOUTHEAST MONTANA

CITY           SKY/WX    TMP DP  RH WIND       PRES   REMARKS
BAKER          CLOUDY    24  14  65 CALM      30.24R
BILLINGS       CLEAR     47  28  47 W18       30.31S
LIVINGSTON     CLOUDY    44  26  49 W17       30.40S
MILES CITY     CLEAR     30  24  78 W10       30.24F WCI  21
FORSYTH          N/A     39  27  60 SW3       30.26F
LAUREL           N/A     49  28  44 W12       30.28S
ROUNDUP          N/A     39  25  58 CALM      30.19S
$$

REGIONAL REPORTS...DAKOTAS

CITY           SKY/WX    TMP DP  RH WIND       PRES   REMARKS
WILLISTON      CLOUDY    30  22  72 CALM      30.26R
MINOT          CLOUDY    25  13  60 NW6       30.27S WCI  18
DICKINSON      CLOUDY    28  17  63 NW5       30.22F
BEACH          CLOUDY    27  19  74 CALM      30.27R
CROSBY         CLOUDY    25  25 100 SE6       30.27F WCI  18
TIOGA          CLOUDY    25  25 100 E5        30.29F
WATFORD CITY   CLOUDY    28  21  74 CALM      30.26R
BISMARCK       MOCLDY    25  15  66 N9        30.28R WCI  15
GRAND FORKS    CLEAR      7   0  73 NW13      30.26R WCI  -9
FARGO          CLEAR      9   1  70 N20       30.23R WCI -10
BUFFALO SD       N/A     27  14  58 W6        30.16S WCI  20
RAPID CITY     CLOUDY    32  19  58 N6        30.23S WCI  26
$$

REGIONAL REPORTS...WYOMING/IDAHO/WASHINGTON

CITY           SKY/WX    TMP DP  RH WIND       PRES   REMARKS
GILLETTE       CLOUDY    36  27  69 W14       30.26S WCI  27
SHERIDAN       CLEAR     43  27  52 CALM      30.28F
BUFFALO WY     CLEAR     46  25  43 N5        30.29S
CODY           CLOUDY    27  16  63 SW3       30.34S
YELLOWSTONE LA   N/A     17  14  88 SE5       30.57S
IDAHO FALLS    FOG       16  14  92 CALM      30.64R VSB 1/4
SALMON         CLOUDY    16  12  86 SE5       30.65S
BOISE          CLEAR     35  30  82 S5        30.63S
SPOKANE        PTCLDY    37  30  75 NE3       30.52R
$$

REGIONAL REPORTS...ALBERTA

CITY           SKY/WX    TMP DP  RH WIND       PRES   REMARKS
EDMONTON       CLOUDY    37  27  65 SW9       30.18F WCI  31
CALGARY        PTCLDY    48  23  37 VRB6      30.24R
LETHBRIDGE     CLEAR     48  30  49 W25G33    30.25S
MEDICINE HAT   CLEAR     28  25  86 S3        30.26R
WATERTON GATE    N/A     46  28  49 SW28G41     N/A
CARDSTON         N/A     50  27  40 W18G26      N/A
ONEFOUR          N/A     39  30  70 NW20        N/A  WCI  30
$$

REGIONAL REPORTS...SASKATCHEWAN

CITY           SKY/WX    TMP DP  RH WIND       PRES   REMARKS
SWIFT CURRENT  CLEAR     28  25  86 W8        30.20S WCI  20
REGINA         CLOUDY    25  21  86 SE8       30.22S WCI  16
SASKATOON      PTCLDY    18  16  93 W6        30.23R WCI   9
VAL MARIE        N/A     27  23  86 NW7         N/A  WCI  19
ROCKGLEN         N/A     28  21  74 W8          N/A  WCI  20
ASSINIBOIA       N/A     36  32  87 SW5         N/A
$$




USA.gov is the U.S. government's official web portal to all federal, state and local government web resources and services.